Regional Weather Roundup
Issued by NWS

Home | Current Version | Previous Version | Graphics & Text | Print | Product List | Glossary On
Versions: 1 2 3 4 5 6 7 8 9 10 11 12 13 14 15 16 17 18 19 20 21 22 23 24 25 26 27
000
ASUS45 KBOI 301610
RWRID
WEATHER ROUNDUP FOR IDAHO
NATIONAL WEATHER SERVICE BOISE ID
1000 AM MDT THU OCT 30 2014

NOTE: "FAIR" INDICATES FEW OR NO CLOUDS BELOW 12000 FEET
WITH NO SIGNIFICANT WEATHER AND/OR OBSTRUCTIONS TO VISIBILITY

IDZ012-014-301700-
SOUTHWEST IDAHO


CITY           SKY/WX    TMP DP  RH WIND       PRES   REMARKS
BOISE          MOSUNNY   53  37  54 S10       30.14S
CALDWELL       MOSUNNY   46  34  61 SE3       30.18R
MOUNTAIN HOME  MOSUNNY   50  37  59 SE12      30.16S
$$

IDZ016-017-301700-
SOUTHCENTRAL IDAHO


CITY           SKY/WX    TMP DP  RH WIND       PRES   REMARKS
BURLEY         SUNNY     47  33  58 E8        30.22S
JEROME         SUNNY     49  34  56 NE16      30.21R
TWIN FALLS     SUNNY     47  34  60 SE7       30.20S
$$

IDZ019>023-301700-
SOUTHEAST IDAHO


CITY           SKY/WX    TMP DP  RH WIND       PRES   REMARKS
IDAHO FALLS    PTSUNNY   42  31  64 N7        30.32R
POCATELLO      MOSUNNY   46  34  62 W6        30.28R
REXBURG        CLOUDY    41  34  76 NE5       30.32R
$$

IDZ006-010-011-018-031-032-301700-
CENTRAL IDAHO MOUNTAINS


CITY           SKY/WX    TMP DP  RH WIND       PRES   REMARKS
MCCALL         MOSUNNY   39  36  89 CALM      30.19S
HAILEY         MOSUNNY   43  25  49 NW13      30.31R
STANLEY          N/A     33  28  81 E3        30.32R
SALMON         MOSUNNY   41  36  81 CALM      30.28S
CHALLIS        MOSUNNY   40  31  70 CALM      30.30R
$$

IDZ002-004-006-007-026-301700-
NORTHERN IDAHO


CITY           SKY/WX    TMP DP  RH WIND       PRES   REMARKS
LEWISTON       CLOUDY    52  46  80 E5        30.10S
LOWELL           N/A     47  44  90 NW6       30.19F
COEUR D`ALENE  CLOUDY    46  43  87 N13       30.13S
MULLAN PASS    FOG       35  35 100 SE12G18   30.18F VSB<1/4 WCI  27
$$



USA.gov is the U.S. government's official web portal to all federal, state and local government web resources and services.